This demonstration page uses our WeatherBlox Daily Observations layout. Learn more.

Left ArrowRight Arrow

39.12711, -84.51439

Hourly Observations for July 27, 2018

Temp ( °F °C ) Dew Point ( °F °C ) Humidity (%) Winds ( mph kmh ) Pressure ( in mb ) Visibility ( mi km ) Precip ( " mm )
12:53 am 00:53 Cloudy with Light Rain 74 23.3 68 20 82 82 NW 7 11 29.97 1015 10 16 0.03 0.76
1:53 am 01:53 Mostly Clear 70 21.1 70 21.1 100 100 Calm 29.96 1015 9 14 0.00 0.03
2:53 am 02:53 Mostly Cloudy 73 22.8 66 18.9 79 79 WNW 6 9 29.97 1015 10 16 0.00 0.00
3:53 am 03:53 Partly Cloudy 71 21.7 64 17.8 79 79 W 6 9 29.97 1015 10 16 0.00 0.00
4:53 am 04:53 Clear 67 19.4 65 18.3 93 93 Calm 29.97 1015 10 16 0.00 0.00
5:53 am 05:53 Clear 66 18.9 63 17.2 90 90 Calm 29.97 1015 10 16 0.00 0.00
6:53 am 06:53 Sunny 66 18.9 63 17.2 90 90 WNW 3 6 29.98 1015 10 16 0.00 0.00
7:53 am 07:53 Partly Cloudy 69 20.6 66 18.9 90 90 Calm 30.00 1016 10 16 0.00 0.00
8:53 am 08:53 Sunny 73 22.8 62 16.7 69 69 NW 6 9 30.01 1016 10 16 0.00 0.00
9:53 am 09:53 Sunny 75 23.9 62 16.7 64 64 VRB 3 6 30.03 1017 10 16 0.00 0.00
10:53 am 10:53 Mostly Sunny 78 25.6 60 15.6 54 54 W 10 17 30.03 1017 10 16 0.00 0.00
11:53 am 11:53 Sunny 79 26.1 59 15 50 50 WNW 13 20 30.04 1017 10 16 0.00 0.00
12:53 pm 12:53 Partly Cloudy 80 26.7 61 16.1 52 52 W 10 17 30.03 1017 10 16 0.00 0.00
1:53 pm 13:53 Mostly Cloudy 79 26.1 58 14.4 49 49 W 10 17 30.02 1017 10 16 0.00 0.00
2:53 pm 14:53 Mostly Cloudy 82 27.8 60 15.6 47 47 W 14 22 30.03 1017 10 16 0.00 0.00
3:53 pm 15:53 Mostly Cloudy 80 26.7 60 15.6 51 51 WNW 7 11 30.02 1017 10 16 0.00 0.00
4:53 pm 16:53 Mostly Cloudy 82 27.8 60 15.6 47 47 WNW 10 17 30.02 1017 10 16 0.00 0.00
5:53 pm 17:53 Mostly Cloudy 81 27.2 58 14.4 45 45 WNW 12 19 30.03 1017 10 16 0.00 0.00
6:53 pm 18:53 Mostly Sunny 78 25.6 57 13.9 48 48 WNW 10 17 30.04 1017 10 16 0.00 0.00
7:53 pm 19:53 Mostly Cloudy 78 25.6 58 14.4 50 50 NW 8 13 30.05 1018 10 16 0.00 0.00
8:53 pm 20:53 Mostly Cloudy 75 23.9 58 14.4 55 55 NW 5 7 30.06 1018 10 16 0.00 0.00
9:53 pm 21:53 Partly Cloudy 71 21.7 59 15 66 66 Calm 30.07 1018 10 16 0.00 0.00
10:53 pm 22:53 Mostly Cloudy 66 18.9 62 16.7 87 87 Calm 30.08 1019 10 16 0.00 0.00
11:53 pm 23:53 Mostly Cloudy 65 18.3 62 16.7 90 90 Calm 30.09 1019 10 16 0.00 0.00

Powered by AerisWeather